Location: Great Falls
(47.5000°N, 111.3000°W)
Time: 01:18:24
(UTC-06:00)

Tiangong - Visible Passes

Search period start: 12 March 2026 00:00
Search period end: 22 March 2026 00:00
Orbit: 381 x 390 km, 41.5° (Epoch: 11 March)

Date Brightness Start Highest point End Pass type
(mag) Time Alt. Az. Time Alt. Az. Time Alt. Az.
12 Mar 0.2 07:01:05 10° SSW 07:03:18 18° SSE 07:05:32 10° ESE visible
13 Mar 0.4 06:03:03 12° S 06:04:03 13° SSE 06:05:37 10° SE visible
14 Mar -0.2 06:38:34 11° SW 06:40:54 22° SSE 06:43:28 10° ESE visible
15 Mar 0.1 05:41:46 18° SSE 05:41:46 18° SSE 05:43:44 10° ESE visible
16 Mar -0.6 06:17:05 20° SSW 06:18:19 26° S 06:21:02 10° ESE visible
17 Mar 0.3 05:20:08 17° SE 05:20:08 17° SE 05:21:19 10° ESE visible
17 Mar -0.6 06:52:24 10° WSW 06:55:08 26° S 06:57:52 10° SE visible
18 Mar -0.8 05:55:20 27° S 05:55:31 27° S 05:58:16 10° ESE visible
19 Mar 0.9 04:58:18 11° ESE 04:58:18 11° ESE 04:58:33 10° ESE visible
19 Mar -0.6 06:30:29 15° SW 06:32:12 23° S 06:34:48 10° SE visible
20 Mar -0.3 05:33:27 22° SSE 05:33:27 22° SSE 05:35:12 10° SE visible
21 Mar -0.4 06:08:37 18° SSW 06:09:02 19° SSW 06:11:20 10° SSE visible
